#timestamp,LO_Frequency,Hit,Temp,Hum 
1479664815.1,286046967.2,N,0.0,0.0
1479664816.0,286046967.2,N,0.0,0.0
1479664835.8,286046967.6,N,0.0,0.0
1479664855.6,286046966.7,N,0.0,0.0
1479664875.5,286046967.2,N,0.0,0.0
1479664895.3,286046967.5,N,0.0,0.0
1479664915.2,286046964.9,N,0.0,0.0
1479664935.9,286046967.3,N,0.0,0.0
1479664955.7,286046967.4,N,0.0,0.0
1479664975.6,286046967.5,N,0.0,0.0
1479664995.4,286046964.7,N,0.0,0.0
1479665015.2,286046967.0,N,0.0,0.0
1479665035.1,286046967.6,N,0.0,0.0
1479665036.0,286046967.6,N,0.0,0.0
1479665055.8,286046967.5,N,0.0,0.0
1479665075.7,286046967.5,N,0.0,0.0
1479665095.5,286046966.7,N,0.0,0.0
1479665115.3,286046967.6,N,0.0,0.0
1479665135.2,286046964.5,N,0.0,0.0
1479665155.0,286046967.2,N,0.0,0.0
1479665155.9,286046967.2,N,0.0,0.0
1479665175.8,286046966.5,N,0.0,0.0
1479665195.6,286046966.2,N,0.0,0.0
1479665215.4,286046966.2,N,0.0,0.0
1479665235.3,286046966.2,N,0.0,0.0
1479665255.1,286046968.3,N,0.0,0.0
1479665275.8,286046969.2,N,0.0,0.0
1479665295.7,286046968.7,N,0.0,0.0
1479665315.5,286046969.0,N,0.0,0.0
1479665335.4,286046970.7,N,0.0,0.0
1479665355.2,286046968.2,N,0.0,0.0
1479665375.0,286046969.0,N,0.0,0.0
1479665375.9,286046969.0,N,0.0,0.0
1479665395.8,286046969.0,N,0.0,0.0
1479665415.6,286046968.0,N,0.0,0.0
1479665435.5,286046968.9,N,0.0,0.0
1479665455.3,286046968.6,N,0.0,0.0
1479665475.1,286046968.9,N,0.0,0.0
1479665495.9,286046970.7,N,0.0,0.0
1479665515.7,286046968.2,N,0.0,0.0
1479665535.5,286046968.3,N,0.0,0.0
1479665555.4,286046970.7,N,0.0,0.0
1479665575.2,286046970.6,N,0.0,0.0
1479665595.1,286046970.3,N,0.0,0.0
1479665596.0,286046970.3,N,0.0,0.0
1479665615.8,286046970.0,N,0.0,0.0
1479665635.6,286046970.1,N,0.0,0.0
1479665655.5,286046971.7,N,0.0,0.0
1479665675.3,286046971.9,N,0.0,0.0
1479665695.1,286046972.4,N,0.0,0.0
1479665715.9,286046972.2,N,0.0,0.0
1479665735.7,286046971.0,N,0.0,0.0
1479665755.6,286046971.9,N,0.0,0.0
1479665775.4,286046971.7,N,0.0,0.0
1479665795.2,286046971.2,N,0.0,0.0
1479665815.1,286046972.6,N,0.0,0.0
1479665816.0,286046972.6,N,0.0,0.0
1479665835.8,286046972.9,N,0.0,0.0
1479665855.6,286046975.4,N,0.0,0.0
1479665875.5,286046973.8,N,0.0,0.0
1479665895.3,286046973.9,N,0.0,0.0
1479665915.2,286046973.9,N,0.0,0.0
1479665935.9,286046973.7,N,0.0,0.0
1479665955.7,286046973.0,N,0.0,0.0
1479665975.6,286046974.9,N,0.0,0.0
1479665995.4,286046975.2,N,0.0,0.0
1479666015.3,286046975.1,N,0.0,0.0
1479666035.1,286046974.4,N,0.0,0.0
1479666036.0,286046974.4,N,0.0,0.0
1479666055.8,286046977.2,N,0.0,0.0
1479666075.7,286046974.4,N,0.0,0.0
1479666095.5,286046977.2,N,0.0,0.0
1479666115.3,286046976.6,N,0.0,0.0
1479666135.2,286046974.1,N,0.0,0.0
1479666155.0,286046975.4,N,0.0,0.0
1479666155.9,286046975.4,N,0.0,0.0
1479666175.8,286046974.3,N,0.0,0.0
1479666195.6,286046974.5,N,0.0,0.0
1479666215.4,286046977.0,N,0.0,0.0
1479666235.3,286046975.0,N,0.0,0.0
1479666255.1,286046973.3,N,0.0,0.0
1479666275.8,286046973.3,N,0.0,0.0
1479666295.7,286046973.7,N,0.0,0.0
1479666315.5,286046971.2,N,0.0,0.0
1479666335.4,286046971.9,N,0.0,0.0
1479666355.2,286046971.6,N,0.0,0.0
1479666375.0,286046973.9,N,0.0,0.0
1479666375.9,286046973.9,N,0.0,0.0
1479666395.8,286046973.4,N,0.0,0.0
1479666415.6,286046971.6,N,0.0,0.0
1479666435.4,286046972.1,N,0.0,0.0
1479666455.3,286046972.4,N,0.0,0.0
1479666475.1,286046969.5,N,0.0,0.0
1479666495.9,286046969.6,N,0.0,0.0
1479666515.7,286046968.1,N,0.0,0.0
1479666535.5,286046970.3,N,0.0,0.0
1479666555.4,286046968.6,N,0.0,0.0
1479666575.2,286046968.2,N,0.0,0.0
1479666595.1,286046968.0,N,0.0,0.0
1479666596.0,286046968.0,N,0.0,0.0
1479666615.8,286046970.7,N,0.0,0.0
1479666635.6,286046970.1,N,0.0,0.0
1479666655.5,286046970.6,N,0.0,0.0
1479666675.3,286046970.4,N,0.0,0.0
1479666695.1,286046970.6,N,0.0,0.0
1479666715.9,286046967.8,N,0.0,0.0
1479666735.7,286046967.8,N,0.0,0.0
1479666755.6,286046970.5,N,0.0,0.0
1479666775.4,286046969.8,N,0.0,0.0
1479666795.2,286046970.0,N,0.0,0.0
1479666815.1,286046970.5,N,0.0,0.0
1479666816.0,286046970.5,N,0.0,0.0
1479666835.8,286046970.6,N,0.0,0.0
1479666855.6,286046970.5,N,0.0,0.0
1479666875.5,286046970.2,N,0.0,0.0
1479666895.3,286046971.7,N,0.0,0.0
1479666915.2,286046972.2,N,0.0,0.0
1479666935.9,286046971.7,N,0.0,0.0
1479666955.7,286046972.4,N,0.0,0.0
1479666975.6,286046971.8,N,0.0,0.0
1479666995.4,286046973.5,N,0.0,0.0
1479667015.3,286046973.8,N,0.0,0.0
1479667035.1,286046973.8,N,0.0,0.0
1479667036.0,286046973.8,N,0.0,0.0
1479667055.8,286046971.5,N,0.0,0.0
1479667075.7,286046973.8,N,0.0,0.0
1479667095.5,286046973.8,N,0.0,0.0
1479667115.3,286046971.2,N,0.0,0.0
1479667135.2,286046971.2,N,0.0,0.0
1479667155.0,286046971.9,N,0.0,0.0
1479667155.9,286046971.9,N,0.0,0.0
1479667175.8,286046971.9,N,0.0,0.0
1479667195.6,286046970.5,N,0.0,0.0
1479667215.4,286046972.0,N,0.0,0.0
1479667235.3,286046969.6,N,0.0,0.0
1479667255.1,286046970.5,N,0.0,0.0
1479667275.9,286046968.4,N,0.0,0.0
1479667295.7,286046969.0,N,0.0,0.0
1479667315.5,286046967.9,N,0.0,0.0
1479667335.4,286046968.2,N,0.0,0.0
1479667355.2,286046968.5,N,0.0,0.0
1479667375.0,286046970.4,N,0.0,0.0
1479667375.9,286046970.4,N,0.0,0.0
1479667395.8,286046970.2,N,0.0,0.0
1479667415.6,286046970.9,N,0.0,0.0
1479667435.5,286046971.2,N,0.0,0.0
1479667455.3,286046973.6,N,0.0,0.0
1479667475.1,286046971.1,N,0.0,0.0
1479667495.9,286046973.7,N,0.0,0.0
1479667515.7,286046971.2,N,0.0,0.0
1479667535.5,286046971.5,N,0.0,0.0
1479667555.4,286046971.3,N,0.0,0.0
1479667575.2,286046971.4,N,0.0,0.0
1479667595.1,286046971.1,N,0.0,0.0
1479667596.0,286046971.1,N,0.0,0.0
1479667615.8,286046971.2,N,0.0,0.0
1479667635.6,286046971.8,N,0.0,0.0
1479667655.5,286046971.2,N,0.0,0.0
1479667675.3,286046972.3,N,0.0,0.0
1479667695.1,286046971.3,N,0.0,0.0
1479667715.9,286046971.0,N,0.0,0.0
1479667735.7,286046975.6,N,0.0,0.0
1479667755.6,286046975.6,N,0.0,0.0
1479667775.4,286046974.7,N,0.0,0.0
1479667795.2,286046977.2,N,0.0,0.0
1479667815.1,286046976.6,N,0.0,0.0
1479667816.0,286046976.6,N,0.0,0.0
1479667835.8,286046977.0,N,0.0,0.0
1479667855.7,286046974.2,N,0.0,0.0
1479667875.5,286046974.2,N,0.0,0.0
1479667895.3,286046976.6,N,0.0,0.0
1479667915.2,286046977.1,N,0.0,0.0
1479667935.0,286046977.0,N,0.0,0.0
1479667935.9,286046977.0,N,0.0,0.0
1479667955.7,286046976.2,N,0.0,0.0
1479667975.6,286046978.7,N,0.0,0.0
1479667995.4,286046976.6,N,0.0,0.0
1479668015.3,286046975.7,N,0.0,0.0
1479668035.1,286046978.5,N,0.0,0.0
1479668036.0,286046978.5,N,0.0,0.0
1479668055.8,286046980.4,N,0.0,0.0
1479668075.7,286046977.8,N,0.0,0.0
1479668095.5,286046977.5,N,0.0,0.0
1479668115.3,286046979.1,N,0.0,0.0
1479668135.2,286046983.6,N,0.0,0.0
1479668155.0,286046982.7,N,0.0,0.0
1479668155.9,286046982.7,N,0.0,0.0
1479668175.8,286046982.5,N,0.0,0.0
1479668195.6,286046982.3,N,0.0,0.0
1479668215.4,286046984.9,N,0.0,0.0
1479668235.3,286046984.1,N,0.0,0.0
1479668255.1,286046983.7,N,0.0,0.0
1479668275.9,286046984.1,N,0.0,0.0
1479668295.7,286046986.0,N,0.0,0.0
1479668315.5,286046986.5,N,0.0,0.0
1479668335.4,286046986.2,N,0.0,0.0
1479668355.2,286046986.2,N,0.0,0.0
1479668375.0,286046985.9,N,0.0,0.0
1479668376.0,286046985.9,N,0.0,0.0
1479668395.8,286046986.2,N,0.0,0.0
